Regional Weather Roundup
Issued by NWS Jackson, KY

Home | Current Version | Previous Version | Graphics & Text | Print | Product List | Glossary On
Versions: 1 2 3 4 5 6 7 8 9 10 11 12 13 14 15 16 17 18 19 20 21 22 23 24 25 26 27 28
000
ASUS43 KJKL 240510
RWRJKL

EAST KENTUCKY HOURLY WEATHER ROUNDUP
NATIONAL WEATHER SERVICE JACKSON KY
1200 AM EST SAT FEB 24 2018

NOTE: "FAIR" INDICATES FEW OR NO CLOUDS BELOW 12,000 FEET WITH
NO SIGNIFICANT WEATHER AND/OR OBSTRUCTIONS TO VISIBILITY.

* THESE REPORTS ARE NOT UNDER NWS QUALITY CONTROL AND MAY NOT
  REPORT WEATHER SUCH AS PRECIPITATION AND FOG.

KYZ079-080-083-085-087-088-110-112-115-119-120-240600
...EASTERN KENTUCKY...

CITY           SKY/WX    TMP DP  RH WIND       PRES   REMARKS
JACKSON        MOCLDY    64  57  78 CALM      30.18F
LONDON           N/A     62  58  86 CALM      30.19F
SOMERSET*      CLOUDY    64  55  72 MISG      30.18F
MONTICELLO*    MOCLDY    63  57  81 VRB7      30.19F
WILLIAMSBURG*    N/A     61  59  94 CALM      30.19F
MIDDLESBORO*     N/A     64  55  72 SW3       30.21F
HARLAN APT*      N/A     57  54  88 CALM      30.22F
PIKE CO APT*   MOCLDY    65  57  75 SE6       30.20F
BIG SANDY APT* CLOUDY    61  61 100 CALM      30.19F
MOREHEAD APT*  CLOUDY    59  57  94 CALM      30.20F
ASHLAND*       LGT RAIN  54  54 100 CALM      30.18S FOG
$$

KYZ035-036-041-042-044-050-067-078-099-240600
...CENTRAL KENTUCKY...

CITY           SKY/WX    TMP DP  RH WIND       PRES   REMARKS
MT STERLING*   MOCLDY    59  57  94 CALM      30.19F
FLEMING/MASON* CLOUDY    57  57 100 NW5       30.20F FOG
DANVILLE*      CLOUDY    59  57  94 CALM      30.19F FOG
LEXINGTON      CLOUDY    59  57  93 CALM      30.18F FOG
FRANKFORT      LGT RAIN  58  55  90 NE5       30.17F
LOUISVILLE     LGT RAIN  55  53  93 N12       30.17F
LEBANON*       CLOUDY    57  57 100 CALM      30.19S FOG
GLASGOW*       CLOUDY   N/A N/A N/A CALM      30.18S HAZE
BOWLING GREEN  CLOUDY    58  58 100 CALM      30.18F FOG
$$

KYZ091>093-OHZ055-061-077-WVZ005-015-034-035-042-240600
...SOUTHERN OHIO/WEST VIRGINIA...

CITY           SKY/WX    TMP DP  RH WIND       PRES   REMARKS
COVINGTON      CLOUDY    51  51 100 NW5       30.19S
COLUMBUS       CLOUDY    53  50  89 N8        30.19S
DAYTON         CLOUDY    48  46  93 N7        30.21F
WILMINGTON       N/A     52  52 100 NW7       30.18F
HUNTINGTON       N/A     60  56  86 NE3       30.17F
CHARLESTON     MOCLDY    58  57  97 CALM      30.18F
BECKLEY          N/A     58  52  80 S8        30.24F
BLUEFIELD      MOCLDY    61  51  70 S3        30.27F
LOGAN CO APT*  CLOUDY    64  57  77 CALM      30.21S
$$

VAZ002-007-008-TNZ017-027-036-066-071-240600
...SOUTHWEST VIRGINIA/EAST TENNESSEE...

CITY           SKY/WX    TMP DP  RH WIND       PRES   REMARKS
WISE*            N/A     64  52  63 S5        30.27F
JONESVILLE*      N/A     55  54  94 CALM      30.25F
ABINGDON*      CLOUDY    63  55  74 CALM      30.26S
BRISTOL          N/A     62  54  74 CALM      30.24F
SEVIERVILLE*   PTCLDY    61  52  72 CALM      30.21F
KNOXVILLE      CLOUDY    65  55  70 CALM      30.20F
LAFOLLETTE*    PTCLDY    59  55  88 CALM      30.24F
OAK RIDGE        N/A     66  58  75 CALM      30.22F
CROSSVILLE       N/A     66  55  67 VRB6      30.23F
NASHVILLE      CLOUDY    62  59  90 N8        30.18R
$$

...KEY TO REMARKS...
VSB - VISIBILITY IN MILES
WCI - WIND CHILL INDEX
HX  - HEAT INDEX

$$




USA.gov is the U.S. government's official web portal to all federal, state and local government web resources and services.